Location: Wieruszow
(51.2830°N, 18.1670°E)
Time: 20:48:07
(UTC+02:00)

ISS - Visible Passes

Search period start: 21 July 2017 00:00
Search period end: 31 July 2017 00:00
Orbit: 400 x 408 km, 51.6° (Epoch: 21 July)

Date Brightness Start Highest point End Pass type
(mag) Time Alt. Az. Time Alt. Az. Time Alt. Az.
21 Jul -3.2 00:29:21 41° ESE 00:29:21 41° ESE 00:31:45 10° E visible
21 Jul -3.8 02:01:57 12° W 02:04:59 82° N 02:08:15 10° E visible
21 Jul -3.9 03:38:12 10° W 03:41:27 63° SSW 03:44:41 10° ESE visible
21 Jul -2.0 23:38:11 20° E 23:38:11 20° E 23:39:24 10° E visible
22 Jul -3.9 01:10:45 23° W 01:12:40 87° N 01:15:56 10° E visible
22 Jul -4.0 02:45:55 10° W 02:49:11 81° SSW 02:52:28 10° ESE visible
22 Jul -2.9 22:41:22 10° SSW 22:44:10 26° SSE 22:46:58 10° E visible
23 Jul -4.0 00:17:07 10° WSW 00:20:22 80° SSE 00:23:39 10° E visible
23 Jul -3.9 01:53:36 10° W 01:56:53 87° NNE 02:00:09 10° E visible
23 Jul -3.4 03:30:09 10° W 03:33:14 39° SSW 03:36:19 10° SE visible
23 Jul -2.3 21:49:48 10° S 21:52:03 18° SE 21:54:18 10° E visible
23 Jul -3.9 23:24:52 10° WSW 23:28:05 62° SSE 23:31:18 10° E visible
24 Jul -3.9 01:01:17 10° W 01:04:33 82° N 01:07:49 10° E visible
24 Jul -3.8 02:37:47 10° W 02:40:59 56° SSW 02:44:12 10° ESE visible
24 Jul -2.1 04:14:58 10° WSW 04:16:58 15° SW 04:18:58 10° S visible
24 Jul -3.6 22:32:43 10° SW 22:35:49 44° SSE 22:38:57 10° E visible
25 Jul -3.9 00:08:56 10° W 00:12:12 84° N 00:15:29 10° E visible
25 Jul -4.0 01:45:27 10° W 01:48:42 75° SSW 01:51:58 10° ESE visible
25 Jul -2.7 03:22:11 10° W 03:24:51 23° SW 03:27:31 10° SSE visible
25 Jul -3.0 21:40:43 10° SSW 21:43:36 30° SSE 21:46:31 10° E visible
25 Jul -4.0 23:16:36 10° WSW 23:19:51 86° SSE 23:23:08 10° E visible
26 Jul -4.0 00:53:07 10° W 00:56:23 90° SSE 00:56:43 69° E visible
26 Jul -3.9 22:24:17 10° WSW 22:27:31 69° SSE 22:30:46 10° E visible
27 Jul -3.9 00:00:44 10° W 00:04:00 82° N 00:05:18 34° E visible
27 Jul -1.5 01:37:15 10° W 01:37:53 15° W 01:37:53 15° W visible
27 Jul -3.6 21:32:02 10° SW 21:35:12 50° SSE 21:38:23 10° E visible
27 Jul -3.8 23:08:21 10° W 23:11:37 82° N 23:14:16 15° E visible
28 Jul -2.7 00:44:52 10° W 00:46:53 34° W 00:46:53 34° W visible
28 Jul -3.9 22:15:58 10° W 22:19:14 90° SE 22:22:30 10° E visible
28 Jul -4.0 23:52:29 10° W 23:55:45 85° SSW 23:56:00 74° ESE visible
29 Jul -3.9 21:23:36 10° WSW 21:26:51 75° SSE 21:30:06 10° E visible
29 Jul -3.9 23:00:05 10° W 23:03:20 84° N 23:05:10 24° E visible
30 Jul -1.8 00:36:36 10° W 00:37:47 20° W 00:37:47 20° W visible
30 Jul -3.8 22:07:39 10° W 22:10:56 82° N 22:14:11 10° E visible
30 Jul -3.6 23:44:09 10° W 23:46:59 55° WSW 23:46:59 55° WSW visible
